TimeCST,TemperatureF,Dew PointF,Humidity,Sea Level PressureIn,VisibilityMPH,Wind Direction,Wind SpeedMPH,Gust SpeedMPH,PrecipitationIn,Events,Conditions,WindDirDegrees,DateUTC
12:54 AM,30.9,26.1,82,30.07,10.0,West,5.8,-,N/A,,Clear,280,2013-02-03 06:54:00
1:54 AM,34.0,28.0,79,30.08,10.0,West,15.0,-,N/A,,Clear,280,2013-02-03 07:54:00
2:54 AM,35.1,28.0,76,30.09,10.0,NW,15.0,-,N/A,,Clear,310,2013-02-03 08:54:00
3:54 AM,35.1,26.1,70,30.09,10.0,NW,15.0,26.5,N/A,,Clear,310,2013-02-03 09:54:00
4:54 AM,35.1,25.0,67,30.11,10.0,WNW,17.3,25.3,N/A,,Clear,290,2013-02-03 10:54:00
5:54 AM,34.0,24.1,67,30.12,10.0,NW,11.5,20.7,N/A,,Clear,310,2013-02-03 11:54:00
6:54 AM,32.0,19.0,59,30.15,10.0,NW,18.4,27.6,N/A,,Clear,310,2013-02-03 12:54:00
7:54 AM,30.0,18.0,61,30.20,10.0,NW,16.1,24.2,N/A,,Partly Cloudy,310,2013-02-03 13:54:00
8:54 AM,30.0,17.1,59,30.24,10.0,NW,23.0,34.5,N/A,,Clear,320,2013-02-03 14:54:00
9:54 AM,30.9,14.0,50,30.25,10.0,NW,18.4,28.8,N/A,,Clear,310,2013-02-03 15:54:00
10:54 AM,34.0,14.0,44,30.25,10.0,NW,12.7,-,N/A,,Clear,320,2013-02-03 16:54:00
11:54 AM,36.0,12.0,37,30.25,10.0,NNW,16.1,-,N/A,,Clear,330,2013-02-03 17:54:00
12:54 PM,37.9,12.0,35,30.22,10.0,NNW,12.7,-,N/A,,Clear,340,2013-02-03 18:54:00
1:54 PM,39.9,12.9,33,30.18,10.0,NW,9.2,-,N/A,,Clear,310,2013-02-03 19:54:00
2:54 PM,42.1,12.9,31,30.15,10.0,Variable,4.6,-,N/A,,Clear,0,2013-02-03 20:54:00
3:54 PM,39.9,12.9,33,30.13,10.0,SSW,4.6,-,N/A,,Clear,200,2013-02-03 21:54:00
4:54 PM,37.0,16.0,42,30.11,10.0,SSW,8.1,-,N/A,,Clear,210,2013-02-03 22:54:00
5:54 PM,34.0,17.1,50,30.09,10.0,South,5.8,-,N/A,,Clear,170,2013-02-03 23:54:00
6:54 PM,35.1,16.0,46,30.06,10.0,SE,8.1,-,N/A,,Clear,130,2013-02-04 00:54:00
7:54 PM,33.1,17.1,52,30.05,10.0,SSE,6.9,-,N/A,,Clear,150,2013-02-04 01:54:00
8:54 PM,34.0,18.0,52,30.03,10.0,SE,8.1,-,N/A,,Clear,140,2013-02-04 02:54:00
9:54 PM,33.8,19.4,56,29.98,10.0,SE,9.2,-,N/A,,Clear,130,2013-02-04 03:54:00
10:54 PM,34.0,19.0,54,29.97,10.0,SE,9.2,-,N/A,,Clear,140,2013-02-04 04:54:00
11:54 PM,34.0,19.0,54,29.95,10.0,SE,9.2,-,N/A,,Clear,140,2013-02-04 05:54:00